TimeAST,TemperatureF,Dew PointF,Humidity,Sea Level PressureIn,VisibilityMPH,Wind Direction,Wind SpeedMPH,Gust SpeedMPH,PrecipitationIn,Events,Conditions,WindDirDegrees,DateUTC
12:00 AM,59,45,49,30.12,6,NNW,6.9,,,,,330,2013-02-13 21:00:00
12:00 AM,57.2,46.4,67,30.12,-9999.0,NW,13.8,-,N/A,,Clear,310,2013-02-13 21:00:00
2:00 AM,55.4,44.6,67,30.09,-9999.0,WNW,13.8,-,N/A,,Clear,300,2013-02-13 23:00:00
3:00 AM,56,45,56,30.09,6,WNW,11.2,,,,,300,2013-02-14 00:00:00
3:00 AM,55.4,44.6,67,30.09,-9999.0,NW,18.4,-,N/A,,Clear,310,2013-02-14 00:00:00
4:00 AM,55.4,44.6,67,30.09,-9999.0,NW,13.8,-,N/A,,Clear,310,2013-02-14 01:00:00
5:00 AM,51.8,46.4,82,30.09,-9999.0,WNW,9.2,-,N/A,,Clear,300,2013-02-14 02:00:00
6:00 AM,51,43,67,30.11,6,WNW,8.9,,,,,300,2013-02-14 03:00:00
6:00 AM,51.8,42.8,71,30.09,-9999.0,WNW,9.2,-,N/A,,Clear,300,2013-02-14 03:00:00
7:00 AM,48.2,42.8,82,30.12,-9999.0,WNW,10.4,-,N/A,,Clear,300,2013-02-14 04:00:00
8:00 AM,50.0,44.6,82,30.12,-9999.0,WNW,9.2,-,N/A,,Clear,300,2013-02-14 05:00:00
9:00 AM,54,45,62,30.14,6,WNW,6.9,,,,,300,2013-02-14 06:00:00
9:00 AM,55.4,48.2,77,30.15,-9999.0,West,11.5,-,N/A,,Clear,270,2013-02-14 06:00:00
10:00 AM,59.0,46.4,63,30.15,-9999.0,West,13.8,-,N/A,,Clear,270,2013-02-14 07:00:00
11:00 AM,60.8,46.4,59,30.12,-9999.0,WNW,16.1,-,N/A,,Clear,300,2013-02-14 08:00:00
12:00 PM,66,45,35,30.12,6,WNW,10.4,,,,Clear,300,2013-02-14 09:00:00
12:00 PM,68.0,44.6,43,30.12,-9999.0,WNW,12.7,-,N/A,,Clear,290,2013-02-14 09:00:00
1:00 PM,69.8,41.0,35,30.09,-9999.0,WNW,128.9,-,N/A,,Clear,290,2013-02-14 10:00:00
2:00 PM,71.6,39.2,31,30.06,-9999.0,West,16.1,-,N/A,,Clear,280,2013-02-14 11:00:00
3:00 PM,71,39,20,30.07,6,NNW,15.7,,,,Clear,330,2013-02-14 12:00:00
4:00 PM,73.4,35.6,25,30.06,-9999.0,WNW,13.8,-,N/A,,Clear,290,2013-02-14 13:00:00
5:00 PM,71.6,37.4,29,30.06,-9999.0,WNW,16.1,-,N/A,,Clear,300,2013-02-14 14:00:00
6:00 PM,69,39,22,30.07,6,WNW,13.4,,,,Mostly Cloudy,300,2013-02-14 15:00:00
6:00 PM,69.8,41.0,35,30.06,-9999.0,WNW,11.5,-,N/A,,Clear,290,2013-02-14 15:00:00
7:00 PM,66.2,44.6,46,30.06,-9999.0,NW,6.9,-,N/A,,Clear,310,2013-02-14 16:00:00
8:00 PM,60.8,46.4,59,30.09,-9999.0,Calm,Calm,-,N/A,,Clear,0,2013-02-14 17:00:00
9:00 PM,64,47,43,30.10,6,Calm,Calm,,,,,,2013-02-14 18:00:00
9:00 PM,59.0,46.4,63,30.09,-9999.0,West,6.9,-,N/A,,Clear,270,2013-02-14 18:00:00
10:00 PM,55.4,46.4,72,30.09,-9999.0,Calm,Calm,-,N/A,,Clear,0,2013-02-14 19:00:00
11:00 PM,55.4,42.8,63,30.09,-9999.0,Calm,Calm,-,N/A,,Clear,0,2013-02-14 20:00:00